Temp
65 64 62 62 53 46 42 48 49 52 52 54 58 56 56 56 56 51 57 60 62 65 66 70 74 76 76 76 76 76 76 76 76 76 76 76 75 74 73 73 73 74 75 75 74 73 71 71 72
63 67 62 53 46 39 43 47 52 55 55 55 55 55 54 58 56 56 55 61 63 64 66 67 72 75 76 76 75 75 75 76 76 76 75 74 74 73 73 72 72 73 74 74 72 71 70 69 70
65 65 58 49 40 40 44 50 51 54 53 53 52 54 55 58 55 56 58 61 62 63 64 66 71 75 75 75 75 75 75 75 76 75 75 73 73 72 71 71 72 72 72 71 70 69 69 68 69
63 60 54 47 42 47 49 52 52 52 53 54 53 54 56 58 59 58 59 60 60 60 62 67 71 74 75 77 76 75 75 74 76 75 73 72 71 71 70 70 70 70 70 70 69 69 68 68 68
58 53 46 41 42 48 51 54 55 53 52 52 53 53 54 56 55 56 57 59 59 58 60 63 70 73 74 74 75 75 74 74 74 72 72 71 70 70 69 70 69 69 69 68 69 69 68 67 67
54 51 43 40 43 50 53 55 53 52 51 51 51 50 56 52 54 54 56 56 58 57 59 61 67 69 71 72 73 72 73 73 72 71 71 70 70 69 69 69 68 68 68 68 68 67 66 66 65
52 47 42 39 44 49 54 52 50 51 51 55 53 50 56 52 54 53 54 54 55 56 57 58 61 65 68 70 70 70 72 71 70 70 70 69 68 68 68 68 68 68 68 67 66 66 65 65 64
51 50 40 40 43 49 54 51 54 55 57 54 58 55 56 52 52 51 52 52 53 54 55 56 57 59 60 63 66 68 68 69 69 68 67 66 66 66 66 65 67 67 66 65 65 64 63 62 62
53 46 40 45 45 52 52 51 54 54 52 52 59 55 54 50 50 49 48 49 49 52 52 53 54 55 56 57 59 63 65 66 66 64 63 58 52 53 55 59 65 66 65 64 63 62 60 58 58
51 43 47 51 50 52 54 53 54 51 52 53 56 56 51 50 48 49 48 50 48 49 50 51 52 52 53 56 55 54 56 55 53 52 51 48 48 49 52 57 63 64 63 62 61 59 56 50 44
49 48 50 54 55 55 54 53 56 52 53 56 59 60 52 49 48 49 51 53 54 53 51 51 50 50 50 52 50 49 49 48 48 48 46 46 46 46 46 45 44 44 49 44 46 44 43 43 42
47 53 54 56 57 54 53 55 53 55 64 62 61 59 52 50 49 51 51 52 51 49 52 50 49 49 48 49 49 48 48 45 45 45 45 43 42 42 42 41 40 40 40 40 40 40 41 41 43
48 51 55 55 54 54 54 55 54 53 61 59 57 56 55 52 51 53 55 53 51 49 51 50 50 50 50 48 46 46 46 46 44 44 44 43 42 41 40 40 39 39 39 39 39 39 40 40 41
50 51 53 54 54 54 54 57 52 58 55 59 56 55 54 53 54 51 49 53 51 53 52 52 50 51 50 50 47 48 46 44 43 42 44 43 42 40 40 39 39 38 38 38 38 39 39 38 40
51 49 50 50 52 51 51 50 48 61 53 57 56 54 55 53 52 54 58 55 56 55 54 51 51 51 50 50 48 47 46 45 44 44 42 42 42 41 39 38 37 37 37 38 37 38 38 38 40
45 42 41 49 48 49 52 45 60 58 53 55 55 54 52 54 55 56 58 57 56 55 53 51 54 51 50 51 48 48 46 46 46 44 43 43 42 41 39 38 37 37 36 37 37 37 36 36 37
38 37 39 44 51 50 48 44 55 55 50 54 55 55 57 57 54 55 57 58 56 56 55 52 52 51 50 51 49 48 46 46 45 43 43 42 42 41 40 39 37 36 35 36 37 35 36 35 36
38 34 38 39 48 44 44 43 51 57 51 57 60 59 57 58 64 68 56 56 55 55 56 54 52 52 50 50 48 45 44 45 43 43 43 41 42 41 40 37 37 36 35 34 35 35 33 34 34
39 38 37 44 52 42 47 49 53 56 56 57 58 58 58 61 67 66 59 54 52 51 52 52 50 51 49 47 45 44 45 44 43 44 44 43 42 41 40 38 36 35 35 34 35 34 34 33 32
42 40 41 47 51 42 44 46 52 55 56 59 60 62 62 61 61 63 57 51 50 53 51 51 51 51 50 51 50 50 50 46 46 44 42 43 41 41 40 38 36 36 34 34 33 34 32 32 30
39 37 43 41 43 42 39 39 42 48 52 57 59 61 61 60 62 64 58 53 48 47 48 51 52 51 51 52 50 39 38 36 37 37 39 41 41 40 41 38 37 35 35 34 33 33 34 32 31
41 46 45 42 36 32 40 33 40 53 54 49 54 55 54 54 57 57 56 53 47 49 49 51 51 51 51 51 48 48 49 46 45 46 44 41 40 39 38 38 37 36 35 33 34 33 32 33 32
42 44 41 36 33 31 31 29 37 43 43 49 52 53 54 56 53 54 54 54 53 49 48 50 50 50 50 50 49 47 49 50 44 46 42 39 39 39 38 38 36 35 35 34 33 31 31 32 31
44 39 36 31 32 27 37 35 38 40 46 46 50 55 55 54 54 53 52 51 50 47 45 44 45 47 48 48 49 47 49 46 40 39 39 38 38 38 38 38 37 36 35 33 33 33 31 31 32
40 36 28 25 22 31 34 32 45 46 51 51 56 57 52 51 51 51 51 53 49 47 45 42 42 44 45 46 47 47 48 45 43 41 41 38 37 37 36 37 36 35 35 34 33 32 32 31 31
36 38 27 19 22 35 32 34 44 49 52 52 49 48 51 51 49 49 49 48 48 46 42 40 40 42 42 43 44 44 46 45 44 41 42 40 40 40 39 37 37 36 34 34 33 32 32 31 31
35 34 39 31 19 20 37 43 52 50 48 46 48 47 50 49 49 50 49 47 47 45 42 40 40 40 41 41 43 43 44 43 43 40 39 40 40 40 37 37 36 35 34 34 33 33 31 31 31
40 40 31 27 23 18 32 32 40 47 48 49 47 47 48 49 53 62 53 51 46 45 41 40 40 40 39 39 41 43 43 44 42 39 38 38 38 38 34 36 36 34 34 34 33 32 31 31 30
34 35 34 36 33 29 26 33 51 47 45 44 49 52 49 50 52 52 47 48 47 43 41 39 38 38 38 39 40 40 41 42 38 37 38 39 38 37 35 36 36 35 34 34 33 33 31 30 29
43 43 43 34 28 32 34 33 54 53 51 49 51 54 53 46 42 42 43 44 45 46 46 41 39 38 39 39 38 39 40 37 37 40 39 38 37 37 36 37 36 35 35 34 34 32 31 30 28
MSLP
1015.46 1015.45 1015.58 1016.05 1017.89 1018.73 1018.16 1016.96 1015.94 1015.28 1014.97 1014.61 1014.91 1015.39 1015.49 1015.46 1016.09 1016.57 1015.57 1015.51 1015.66 1015.77 1016.05 1016.23 1016.43 1016.64 1016.88 1017.15 1017.42 1017.70 1017.98 1018.12 1018.33 1018.57 1018.76 1018.97 1019.24 1019.49 1019.61 1019.66 1019.68 1019.60 1019.60 1019.80 1020.04 1020.24 1020.35 1020.35 1020.33
1015.57 1015.54 1016.10 1017.36 1018.57 1019.21 1017.98 1016.48 1015.72 1014.87 1014.53 1014.68 1014.83 1014.97 1015.17 1015.15 1015.14 1015.34 1015.56 1015.46 1015.57 1015.70 1015.97 1016.22 1016.38 1016.63 1016.93 1017.23 1017.47 1017.69 1017.93 1018.19 1018.43 1018.63 1018.83 1019.10 1019.41 1019.62 1019.80 1019.93 1019.97 1019.88 1019.91 1020.06 1020.23 1020.71 1020.74 1020.76 1020.72
1015.48 1015.78 1017.04 1018.16 1019.31 1019.03 1017.59 1015.89 1015.05 1014.49 1014.48 1014.66 1014.78 1014.82 1014.88 1014.65 1014.74 1014.89 1014.83 1015.15 1015.54 1015.75 1016.08 1016.29 1016.50 1016.62 1016.80 1017.10 1017.42 1017.73 1017.90 1018.17 1018.34 1018.76 1019.07 1019.42 1019.50 1019.82 1019.90 1020.02 1019.98 1020.12 1020.40 1020.54 1020.85 1020.94 1020.96 1021.03 1021.08
1015.90 1016.62 1018.25 1018.70 1019.03 1018.04 1016.73 1015.24 1014.98 1014.71 1014.62 1014.71 1014.75 1014.96 1014.73 1014.05 1014.36 1014.44 1014.67 1015.02 1015.58 1015.85 1016.05 1016.30 1016.53 1016.71 1016.83 1016.97 1017.24 1017.59 1018.02 1018.22 1018.42 1018.92 1019.32 1019.54 1019.77 1019.94 1020.16 1020.24 1020.30 1020.41 1020.51 1020.71 1020.83 1020.89 1021.10 1021.21 1021.09
1016.75 1017.83 1018.72 1019.00 1018.45 1017.24 1016.19 1015.17 1014.83 1014.81 1014.68 1014.71 1014.87 1014.86 1014.73 1014.14 1014.50 1014.66 1014.93 1015.27 1015.59 1015.96 1016.13 1016.31 1016.51 1016.79 1017.03 1017.36 1017.64 1017.83 1018.16 1018.41 1018.63 1019.09 1019.44 1019.61 1020.02 1020.24 1020.46 1020.53 1020.68 1020.68 1020.79 1021.01 1021.21 1021.24 1021.26 1021.34 1021.37
1017.77 1018.62 1019.23 1019.12 1018.10 1016.83 1015.65 1014.80 1014.72 1014.63 1014.59 1014.74 1014.94 1014.99 1014.59 1014.32 1014.82 1015.11 1015.29 1015.52 1015.70 1016.10 1016.28 1016.41 1016.46 1016.70 1017.07 1017.36 1017.61 1017.93 1018.15 1018.37 1018.81 1019.20 1019.54 1019.72 1020.07 1020.32 1020.50 1020.67 1020.80 1020.99 1021.03 1021.17 1021.34 1021.55 1021.60 1021.53 1021.78
1017.89 1018.99 1019.18 1018.71 1017.79 1016.64 1015.28 1014.82 1014.65 1014.50 1014.50 1014.54 1014.65 1015.07 1014.47 1014.61 1014.83 1015.28 1015.63 1015.99 1016.13 1016.25 1016.34 1016.53 1016.58 1016.65 1016.94 1017.38 1017.62 1017.95 1018.16 1018.56 1018.94 1019.27 1019.55 1019.76 1020.04 1020.29 1020.67 1020.80 1020.99 1020.93 1021.16 1021.45 1021.59 1021.66 1021.65 1021.98 1022.15
1017.87 1018.84 1019.04 1018.45 1017.55 1016.12 1014.86 1014.63 1014.21 1014.33 1014.06 1014.19 1014.48 1014.74 1014.60 1014.70 1015.23 1015.74 1016.09 1016.28 1016.44 1016.58 1016.56 1016.66 1016.73 1016.82 1017.23 1017.45 1017.66 1017.92 1018.29 1018.67 1019.08 1019.37 1019.66 1019.97 1020.24 1020.48 1020.61 1020.89 1020.97 1021.07 1021.28 1021.54 1021.59 1021.90 1022.14 1022.40 1022.40
1017.60 1018.60 1018.89 1017.94 1017.12 1015.50 1014.59 1014.42 1013.92 1013.81 1014.03 1014.19 1014.10 1014.14 1014.23 1014.99 1015.64 1016.08 1016.46 1016.72 1016.74 1016.66 1016.61 1016.65 1016.84 1017.00 1017.24 1017.53 1017.72 1017.93 1018.23 1018.70 1019.12 1019.45 1019.83 1020.26 1020.63 1020.80 1020.99 1021.13 1021.03 1021.19 1021.43 1021.77 1021.99 1022.35 1022.63 1022.72 1022.75
1017.68 1018.50 1017.75 1016.46 1015.84 1015.07 1014.45 1014.33 1013.93 1014.03 1013.96 1013.81 1013.73 1013.66 1014.35 1015.15 1015.57 1015.74 1015.97 1016.02 1016.26 1016.24 1016.27 1016.53 1016.75 1016.94 1017.29 1017.53 1017.83 1018.16 1018.43 1018.76 1019.24 1019.71 1020.16 1020.67 1021.02 1021.21 1021.27 1021.25 1021.31 1021.52 1021.81 1022.11 1022.35 1022.67 1023.01 1023.20 1023.31
1017.51 1017.51 1016.65 1015.72 1015.23 1014.90 1014.55 1014.12 1013.69 1013.89 1013.67 1013.14 1013.36 1013.12 1013.99 1014.83 1015.27 1015.34 1015.22 1015.15 1014.74 1015.25 1015.81 1016.01 1016.49 1016.86 1017.21 1017.47 1017.84 1018.22 1018.60 1018.98 1019.42 1019.89 1020.33 1020.80 1021.14 1021.37 1021.62 1021.84 1022.14 1022.44 1022.61 1022.91 1023.11 1023.37 1023.46 1023.53 1023.49
1017.16 1016.32 1016.05 1015.23 1014.84 1014.78 1014.57 1013.95 1013.77 1013.77 1012.13 1011.85 1012.15 1012.47 1013.15 1014.01 1014.63 1014.35 1014.35 1014.24 1014.45 1014.75 1015.16 1015.66 1016.15 1016.61 1017.05 1017.43 1017.74 1018.09 1018.47 1018.89 1019.37 1019.78 1020.18 1020.80 1021.27 1021.69 1022.00 1022.30 1022.65 1022.90 1023.17 1023.58 1023.64 1023.76 1023.81 1023.84 1023.75
1016.75 1016.03 1015.67 1015.08 1015.04 1014.79 1014.50 1013.62 1013.73 1013.03 1011.57 1011.47 1012.02 1012.47 1012.69 1013.17 1013.19 1013.25 1013.30 1013.60 1014.04 1014.29 1014.48 1014.96 1015.55 1015.87 1016.32 1016.93 1017.39 1017.88 1018.26 1018.60 1019.07 1019.59 1019.91 1020.33 1020.90 1021.44 1021.84 1022.34 1022.67 1022.96 1023.26 1023.58 1023.62 1023.84 1023.80 1023.82 1023.94
1015.88 1015.77 1015.48 1014.98 1014.65 1014.51 1014.45 1013.08 1013.42 1011.56 1010.91 1011.12 1011.55 1011.51 1011.86 1012.22 1011.93 1012.52 1012.85 1012.53 1012.86 1013.00 1013.43 1014.04 1014.60 1015.09 1015.64 1016.14 1016.69 1017.18 1017.72 1018.12 1018.68 1019.16 1019.51 1019.95 1020.39 1020.98 1021.53 1022.04 1022.36 1022.67 1023.01 1023.25 1023.55 1023.77 1023.87 1023.91 1023.85
1015.71 1015.98 1015.36 1014.52 1013.94 1014.19 1014.08 1013.62 1012.28 1010.20 1011.01 1010.85 1010.86 1010.79 1010.89 1010.92 1011.28 1010.80 1010.31 1010.84 1011.03 1011.75 1012.55 1012.87 1013.63 1014.33 1014.92 1015.43 1015.92 1016.35 1016.88 1017.57 1018.03 1018.44 1018.93 1019.38 1019.90 1020.52 1021.06 1021.69 1022.26 1022.62 1022.89 1023.24 1023.45 1023.69 1023.74 1023.71 1023.59
1016.10 1016.26 1015.76 1013.84 1013.99 1013.80 1014.07 1012.91 1010.45 1010.27 1010.76 1010.60 1010.24 1010.21 1009.98 1009.49 1009.56 1009.47 1009.32 1009.32 1009.82 1010.54 1010.91 1011.77 1012.35 1013.05 1013.92 1014.48 1015.09 1015.68 1016.28 1016.76 1017.26 1017.80 1018.34 1018.86 1019.38 1019.94 1020.66 1021.37 1022.00 1022.38 1022.77 1023.07 1023.30 1023.55 1023.77 1023.85 1023.86
1016.82 1016.40 1015.75 1014.51 1013.18 1013.61 1013.88 1012.38 1010.53 1010.11 1010.57 1010.43 1009.68 1009.25 1009.11 1008.41 1008.11 1007.74 1007.59 1007.80 1008.45 1008.81 1009.74 1010.53 1011.22 1011.66 1012.32 1013.33 1014.11 1014.75 1015.43 1016.10 1016.68 1017.27 1017.74 1018.30 1018.84 1019.51 1020.04 1020.69 1021.33 1021.95 1022.52 1022.91 1023.00 1023.49 1023.65 1023.79 1023.82
1016.41 1016.67 1015.85 1015.11 1013.59 1013.69 1013.49 1012.19 1011.24 1010.13 1010.46 1009.56 1009.01 1008.30 1007.89 1007.55 1006.23 1005.96 1006.55 1007.08 1007.63 1007.97 1008.40 1009.21 1010.05 1010.73 1011.69 1012.74 1013.69 1014.43 1014.90 1015.15 1015.63 1016.32 1016.99 1017.57 1018.16 1018.84 1019.60 1020.30 1020.92 1021.56 1022.21 1022.58 1022.87 1023.16 1023.65 1023.74 1023.96
1016.29 1016.16 1015.72 1014.51 1013.60 1013.66 1012.82 1011.93 1010.79 1010.14 1009.32 1008.41 1007.54 1007.14 1006.44 1005.60 1004.53 1005.18 1005.48 1005.97 1006.58 1007.13 1007.60 1007.91 1008.72 1009.50 1010.83 1011.97 1012.99 1013.93 1013.74 1014.67 1015.10 1015.13 1015.45 1016.37 1017.15 1017.99 1018.88 1019.75 1020.54 1021.21 1021.68 1021.99 1022.39 1022.84 1023.33 1023.83 1023.92
1016.33 1016.10 1015.50 1014.19 1013.31 1013.51 1012.33 1010.62 1009.92 1009.06 1007.77 1006.72 1006.27 1005.38 1005.34 1005.36 1005.14 1004.81 1004.89 1005.43 1005.87 1005.93 1006.54 1007.33 1007.49 1008.01 1008.59 1009.46 1010.41 1011.45 1012.16 1013.18 1014.22 1015.02 1015.36 1015.53 1016.06 1016.90 1017.81 1018.68 1019.59 1020.34 1021.16 1021.70 1022.06 1022.32 1023.22 1023.53 1023.56
1015.51 1015.86 1014.84 1014.61 1014.08 1013.49 1012.37 1009.34 1008.29 1007.03 1006.57 1006.12 1005.00 1004.63 1004.98 1005.14 1004.69 1004.21 1004.68 1004.99 1005.82 1006.39 1006.44 1006.35 1006.50 1007.31 1007.99 1008.12 1008.95 1010.07 1011.37 1012.86 1013.44 1013.88 1014.96 1015.52 1015.83 1016.18 1016.63 1017.46 1018.28 1019.28 1020.09 1020.78 1021.21 1021.73 1022.26 1023.01 1023.63
1014.98 1013.94 1014.19 1014.59 1015.21 1014.70 1013.13 1009.55 1008.41 1006.53 1005.93 1005.44 1004.70 1004.54 1004.80 1004.70 1004.61 1004.50 1004.79 1004.94 1005.25 1005.21 1005.10 1005.61 1005.75 1006.32 1006.41 1007.80 1008.88 1008.89 1008.62 1009.35 1009.21 1010.42 1011.83 1013.36 1014.52 1015.30 1015.85 1016.62 1017.57 1018.30 1019.07 1019.77 1020.30 1021.01 1021.48 1021.97 1022.84
1014.05 1013.63 1014.13 1014.65 1015.30 1014.86 1013.42 1012.70 1007.19 1005.78 1005.26 1004.62 1004.54 1004.60 1004.62 1004.57 1005.10 1004.84 1004.62 1004.51 1004.35 1004.42 1004.52 1004.47 1004.79 1005.60 1005.80 1006.27 1006.48 1007.97 1008.22 1008.11 1008.91 1009.73 1010.86 1012.16 1013.17 1014.33 1014.82 1015.33 1016.22 1017.37 1018.15 1018.78 1019.34 1020.09 1020.78 1021.15 1021.70
1014.06 1014.36 1014.75 1015.16 1015.25 1014.02 1012.39 1011.63 1006.82 1005.61 1004.59 1004.27 1003.87 1003.70 1003.95 1004.90 1004.78 1004.62 1004.47 1004.35 1004.22 1004.00 1004.21 1004.60 1004.71 1004.27 1005.18 1005.67 1006.24 1006.02 1006.60 1007.63 1008.47 1009.05 1010.43 1011.16 1012.22 1013.43 1014.54 1015.15 1015.63 1016.17 1016.92 1017.91 1018.67 1019.33 1019.87 1020.43 1020.88
1014.10 1015.09 1015.89 1015.72 1015.35 1012.47 1010.59 1009.83 1005.68 1004.96 1004.05 1003.97 1003.98 1003.77 1004.04 1004.61 1005.04 1005.19 1005.06 1004.72 1003.75 1004.23 1004.33 1004.29 1004.37 1004.60 1004.77 1005.11 1005.70 1006.09 1006.37 1007.17 1008.04 1008.74 1009.15 1010.48 1011.23 1012.03 1012.91 1014.14 1014.94 1015.63 1016.38 1017.23 1017.87 1018.62 1019.27 1019.90 1020.31
1014.03 1014.70 1016.12 1015.49 1014.17 1011.92 1010.83 1006.75 1004.01 1003.67 1003.53 1003.64 1003.77 1004.35 1004.49 1004.96 1005.21 1005.12 1005.04 1005.08 1004.60 1004.01 1004.03 1004.49 1004.37 1004.05 1004.38 1004.97 1005.21 1005.86 1006.58 1006.35 1006.83 1007.75 1008.64 1009.09 1009.75 1010.59 1011.56 1012.43 1013.91 1014.74 1015.27 1016.06 1017.18 1017.92 1018.45 1019.18 1019.77
1013.61 1014.15 1013.73 1014.26 1013.74 1013.13 1009.28 1005.30 1003.18 1003.01 1003.22 1004.08 1004.31 1004.57 1004.96 1005.41 1005.62 1005.11 1004.76 1004.52 1004.33 1004.14 1003.47 1004.33 1004.68 1004.63 1004.41 1004.81 1005.21 1005.27 1005.65 1006.34 1006.16 1006.49 1007.28 1008.16 1008.84 1009.26 1010.83 1011.97 1012.72 1013.88 1014.87 1015.43 1016.18 1016.87 1017.64 1018.21 1019.00
1012.79 1012.88 1013.64 1014.44 1014.13 1012.22 1008.83 1007.18 1002.64 1003.08 1003.99 1004.56 1004.89 1005.44 1005.59 1005.44 1005.25 1004.81 1004.67 1004.25 1004.36 1004.40 1003.69 1003.85 1004.21 1004.59 1004.42 1004.34 1004.61 1005.02 1004.87 1005.08 1006.05 1006.44 1006.47 1007.23 1007.74 1008.56 1009.26 1010.67 1011.92 1013.06 1013.98 1014.68 1015.35 1015.92 1016.82 1017.44 1018.10
1013.39 1013.18 1013.36 1013.39 1012.84 1011.52 1009.50 1006.15 1003.41 1003.81 1004.17 1004.53 1005.53 1006.00 1006.43 1005.85 1005.37 1005.49 1005.89 1005.52 1005.63 1005.47 1004.99 1004.65 1004.79 1004.40 1004.44 1004.27 1004.18 1004.36 1004.55 1004.69 1005.11 1006.09 1006.64 1006.70 1007.28 1007.69 1008.03 1008.61 1009.98 1011.28 1012.37 1013.62 1014.35 1014.82 1015.68 1016.39 1017.30
1011.77 1012.67 1012.62 1012.32 1011.66 1010.21 1008.32 1006.18 1004.79 1004.67 1005.13 1005.43 1005.80 1006.69 1007.32 1008.56 1008.35 1008.02 1008.02 1007.71 1007.40 1006.84 1006.39 1005.58 1005.36 1005.27 1004.90 1004.71 1005.05 1005.05 1004.59 1004.64 1004.91 1005.14 1005.29 1006.00 1006.27 1007.29 1008.22 1008.45 1008.57 1009.68 1011.11 1011.91 1012.71 1013.61 1014.28 1015.24 1016.03
Wind_Speed
2 3 3 5 5 6 4 6 3 3 2 3 7 6 8 4 7 7 4 7 4 11 7 7 13 14 14 14 14 13 14 13 12 11 11 11 9 8 7 6 6 6 8 9 10 9 8 8 8
2 0 5 3 5 2 6 4 6 6 1 5 4 4 2 7 2 3 1 8 7 8 6 6 9 14 15 13 14 14 13 13 13 13 11 9 9 7 8 7 6 5 6 6 8 8 8 8 8
1 4 4 5 4 5 5 5 4 2 3 2 1 1 2 5 2 4 5 10 7 7 6 6 8 13 16 16 16 14 13 13 11 9 9 9 8 8 8 7 8 9 9 9 8 7 7 7 8
3 5 5 4 6 8 7 5 2 1 1 3 1 5 4 3 5 5 6 9 8 7 6 8 9 10 10 14 10 11 8 9 11 11 10 9 10 9 8 8 9 9 9 8 8 9 8 8 9
5 4 3 2 5 7 6 6 4 4 2 2 3 5 5 2 3 3 7 8 10 7 6 6 10 10 10 12 14 13 13 12 12 12 11 11 10 9 8 9 9 10 10 9 8 9 9 10 10
5 4 3 3 5 6 7 5 4 4 2 1 3 1 7 1 3 5 6 7 7 8 6 6 8 10 12 11 13 13 14 14 13 13 12 11 10 9 9 10 10 10 10 10 9 9 9 10 10
6 4 4 3 5 7 5 3 3 3 2 6 2 2 5 3 5 6 6 5 5 5 6 5 5 8 11 14 12 12 14 14 14 13 12 11 12 12 10 10 10 11 10 10 9 9 10 10 10
6 5 1 4 3 7 3 2 1 4 5 2 5 6 6 1 6 7 5 5 5 5 6 6 5 6 6 5 9 14 11 13 13 12 12 10 10 11 11 9 10 11 11 10 10 9 9 9 10
4 4 2 6 5 6 1 1 2 1 2 3 7 5 2 4 7 6 4 2 4 5 6 6 6 6 6 6 6 8 11 11 11 10 11 8 4 6 6 6 11 11 11 10 10 10 9 9 9
5 4 9 7 5 5 3 3 3 1 4 5 6 5 4 6 6 9 9 12 9 10 9 7 7 7 6 4 5 5 5 5 5 6 7 5 5 4 4 5 8 10 10 9 10 9 8 7 4
5 7 5 6 8 5 4 4 4 4 7 11 9 8 6 7 8 10 11 12 17 11 7 10 8 7 7 6 4 3 3 4 4 7 6 6 4 3 3 3 3 4 7 4 5 5 4 4 4
3 9 6 5 4 3 4 5 5 8 18 8 14 6 5 10 13 16 15 16 12 11 11 9 9 9 7 5 6 5 5 4 4 5 7 5 4 4 4 4 4 3 3 4 3 2 3 3 4
5 5 6 7 7 8 4 15 8 10 19 10 8 7 11 10 14 13 14 9 8 11 12 12 12 12 10 9 6 6 6 6 6 6 6 6 6 5 5 4 4 4 4 4 4 4 3 4 3
3 4 7 7 7 7 7 17 6 13 7 12 7 13 13 12 17 8 9 16 14 14 15 14 15 14 12 12 10 8 6 6 6 5 7 7 6 5 5 5 5 4 4 3 4 3 3 3 2
2 7 9 7 7 8 7 12 12 20 3 13 13 11 10 14 9 19 19 18 18 14 12 17 17 15 15 15 11 9 8 7 8 7 8 8 8 7 7 5 5 4 4 6 4 3 2 2 1
3 2 4 2 7 3 8 11 22 8 7 14 13 12 10 13 14 16 16 16 14 13 18 15 15 18 17 16 12 9 8 8 8 7 8 10 9 9 7 6 5 5 4 4 4 3 2 2 2
3 6 8 12 13 6 8 9 14 6 4 11 13 12 12 13 11 14 17 17 15 17 15 16 18 19 20 16 11 11 10 9 8 7 8 10 9 9 8 7 6 6 5 4 4 2 2 2 1
9 6 7 7 5 5 7 16 13 20 6 18 19 18 14 16 25 17 12 11 11 14 16 15 15 17 17 11 9 6 7 9 8 9 9 10 9 10 8 6 7 6 5 5 3 3 2 2 1
1 5 7 10 12 4 16 18 20 18 21 22 22 20 22 23 22 14 9 9 10 10 14 17 17 17 14 11 12 9 13 10 9 10 14 13 11 11 10 7 7 6 7 6 6 4 4 1 1
9 11 16 13 19 5 14 19 19 21 22 26 26 25 21 15 13 16 10 8 11 13 15 14 17 18 18 15 13 8 11 9 9 7 9 12 13 13 11 11 9 9 6 6 6 5 3 2 2
7 7 17 14 8 6 9 13 10 10 11 20 25 22 17 15 18 18 10 9 6 9 12 16 18 17 16 17 12 5 6 4 4 7 7 10 13 13 14 13 11 11 8 8 7 6 7 5 1
16 13 13 11 4 5 5 14 3 14 15 10 15 14 12 11 11 12 9 9 8 12 10 13 14 17 17 18 14 20 16 13 13 13 12 13 16 15 14 14 12 12 8 8 8 6 4 5 5
11 5 5 2 4 5 3 5 3 4 6 10 9 9 10 12 8 10 10 8 8 8 10 12 13 14 16 18 19 15 15 12 5 8 14 13 13 14 15 15 14 12 9 9 11 8 7 4 5
2 1 3 4 3 8 13 10 4 5 7 4 3 7 8 8 10 7 7 7 8 6 7 7 9 13 15 17 19 21 22 12 9 12 12 11 10 10 12 13 12 12 12 11 9 9 8 7 4
3 4 5 5 1 11 2 6 11 6 9 6 11 11 6 6 7 10 12 13 10 9 9 6 8 11 12 15 17 17 17 12 13 12 12 14 11 10 14 15 13 11 11 11 10 10 8 9 6
8 10 7 8 6 13 3 17 11 8 6 8 5 4 6 9 7 7 7 8 10 11 6 7 8 8 10 11 13 10 13 10 11 11 9 11 12 13 15 16 14 14 14 12 11 8 8 8 7
5 6 3 3 2 1 11 21 19 12 7 3 5 4 8 8 9 10 9 8 9 9 6 7 7 7 7 8 10 12 12 12 13 12 11 11 10 10 12 15 14 14 13 14 13 9 11 10 9
5 3 1 2 3 11 13 7 23 15 10 8 9 10 10 8 12 19 11 10 5 10 6 5 6 7 8 9 10 11 12 13 11 10 15 15 13 14 15 16 15 14 14 14 14 10 10 11 8
2 3 3 2 6 13 13 14 15 10 7 9 12 12 9 11 12 11 9 10 11 9 9 8 6 6 7 8 9 10 11 12 9 10 10 12 11 15 17 19 18 18 17 16 15 14 14 14 11
8 20 23 14 10 10 18 18 24 20 14 9 16 17 18 18 18 17 17 17 17 19 17 9 8 7 6 6 6 9 8 8 10 13 14 12 13 12 13 15 17 17 18 18 18 17 15 16 15
Wind_Direction
11 7 62 41 49 59 267 260 262 257 237 168 127 150 195 172 168 211 323 195 166 155 168 166 174 177 171 165 168 171 161 154 152 149 141 128 111 120 120 103 88 95 85 79 73 56 47 38 32
0 175 43 77 88 49 268 248 234 231 263 120 135 130 148 243 223 261 152 202 172 148 151 157 165 173 174 173 175 165 156 157 152 147 115 112 133 131 129 122 103 102 103 86 70 64 54 50 46
125 43 81 92 116 191 229 227 235 261 147 172 220 239 196 232 228 217 215 163 155 149 154 159 160 179 171 169 166 162 156 164 150 148 165 170 160 147 131 121 116 101 101 97 93 78 67 61 55
47 12 38 92 232 254 220 252 233 295 293 237 221 269 284 231 168 199 158 155 147 158 156 168 169 180 171 171 162 160 168 153 172 177 178 169 155 147 137 131 119 108 99 90 81 76 79 79 64
35 55 55 324 260 263 257 263 178 199 258 200 154 276 260 248 58 148 153 152 159 164 165 170 176 176 160 164 193 186 194 192 188 182 173 161 156 147 140 132 125 116 111 106 105 101 86 72 70
40 91 38 259 264 274 273 247 169 188 224 192 175 261 247 339 162 181 147 152 153 158 170 180 183 182 169 185 195 183 195 188 180 177 173 163 158 150 142 135 128 125 115 109 99 93 87 80 72
114 91 227 257 264 301 262 141 194 194 191 250 146 233 266 280 200 151 141 130 149 163 165 181 183 186 187 197 187 188 193 179 178 179 174 164 159 153 152 145 140 127 120 111 102 89 77 67 64
105 91 279 252 265 273 309 223 197 179 252 71 173 236 260 331 132 112 105 141 167 184 189 185 177 160 168 182 178 193 169 173 178 176 165 154 154 152 152 148 145 135 127 119 110 100 92 81 68
133 66 247 252 187 256 208 307 200 172 262 224 208 219 215 114 120 108 129 191 212 218 206 191 183 175 165 165 174 165 163 169 173 160 137 120 115 122 123 162 148 141 133 126 117 112 100 87 75
105 141 222 213 205 239 286 202 262 242 248 254 279 242 126 147 175 172 185 200 206 209 206 192 187 178 167 164 163 154 156 151 145 137 126 129 142 146 150 137 136 137 133 126 116 107 93 81 65
175 210 218 252 231 270 268 275 217 182 265 225 221 248 178 184 203 206 213 206 213 208 194 194 185 179 172 172 162 160 156 146 146 147 146 149 150 154 122 86 71 70 84 59 78 76 65 70 68
214 241 214 254 209 278 250 291 248 181 253 232 219 234 175 199 207 212 214 216 203 195 201 188 183 182 184 170 179 173 167 166 165 167 160 157 155 159 153 138 146 130 111 124 118 101 108 90 80
213 235 239 250 271 258 286 256 234 241 257 254 243 230 237 224 223 227 228 233 203 206 201 196 187 190 185 184 175 176 184 179 171 171 173 164 165 168 151 157 154 149 151 161 146 143 131 107 105
227 259 270 275 249 240 203 269 140 254 253 264 240 242 234 226 227 231 217 228 212 208 204 192 196 194 185 193 186 190 182 173 174 175 182 176 167 160 162 163 167 159 166 148 147 150 142 123 122
294 312 311 223 244 234 164 292 230 249 196 267 262 257 250 236 221 226 228 223 217 215 203 197 193 192 192 196 190 186 187 179 185 187 180 177 171 171 165 163 164 169 163 154 144 140 126 106 74
313 163 309 270 136 262 154 253 273 262 210 262 276 279 261 254 226 237 236 228 210 200 201 189 192 192 194 197 191 192 188 186 190 187 181 182 180 172 164 164 175 164 159 158 150 145 107 86 63
329 241 228 305 199 150 188 249 269 264 178 273 277 269 277 280 251 233 230 221 210 204 199 197 192 194 194 194 187 189 184 191 192 183 183 185 181 174 170 173 166 160 156 168 160 132 157 149 35
224 228 254 247 300 183 241 256 278 288 235 263 274 270 260 261 266 261 230 221 213 205 203 197 195 198 192 186 182 181 182 192 181 185 190 180 181 175 171 166 163 159 160 165 166 144 94 117 93
165 252 248 266 276 298 265 268 275 274 285 271 263 259 262 259 265 272 252 209 205 204 199 194 188 191 175 182 180 191 204 198 198 195 186 182 180 177 176 172 163 165 173 177 168 133 138 107 102
250 269 268 272 264 203 269 271 267 263 255 261 270 273 266 274 269 269 260 215 202 209 204 201 203 188 187 188 194 198 189 200 205 202 194 186 176 175 176 173 175 174 162 169 174 158 137 133 160
217 217 259 260 321 250 298 271 231 261 252 262 265 264 276 269 280 279 278 236 216 222 205 207 202 198 200 193 177 129 103 80 148 172 184 196 186 181 181 176 173 173 171 179 179 173 169 149 140
267 224 249 266 3 248 18 296 307 258 269 244 265 273 266 258 264 279 302 296 223 229 215 219 204 203 193 185 190 192 198 189 198 193 188 185 186 186 181 179 178 178 176 171 180 172 171 146 160
241 198 225 187 205 337 230 272 237 151 260 270 278 276 273 271 289 283 282 280 270 239 222 213 200 203 192 194 190 197 212 212 181 180 177 181 182 189 184 181 177 178 180 181 172 164 180 180 149
48 42 51 67 101 268 200 197 94 166 195 240 227 274 267 325 328 304 298 299 292 272 251 231 210 197 193 194 201 198 205 194 168 165 178 181 178 180 191 187 184 180 177 179 180 179 171 178 166
144 74 309 322 32 253 171 230 248 237 222 211 281 269 311 331 342 345 345 337 348 309 280 228 203 213 194 197 204 208 206 194 195 186 180 175 179 186 190 185 186 183 180 179 171 174 177 180 183
180 167 166 235 258 281 90 260 269 212 246 239 322 308 318 324 337 328 327 318 309 307 294 243 217 209 188 196 199 197 214 200 198 183 186 187 189 194 181 185 186 187 178 175 176 177 177 174 181
172 181 197 295 13 321 264 277 280 215 286 282 289 8 317 321 306 288 288 277 298 300 287 239 229 221 192 195 198 205 203 206 198 179 176 180 182 176 174 184 182 181 181 179 176 179 179 177 182
171 189 53 355 252 258 269 272 261 303 308 319 324 341 337 311 309 310 305 318 329 292 302 258 231 225 206 191 202 213 207 206 203 183 182 183 178 172 169 178 184 182 183 182 182 178 179 178 181
87 251 244 228 200 248 261 256 274 291 305 329 315 310 299 289 290 312 325 324 327 332 328 324 293 234 232 224 208 210 212 208 185 194 201 192 185 183 179 179 180 184 183 186 188 186 178 184 176
208 252 240 242 245 230 254 258 285 295 310 314 313 317 353 19 15 16 14 14 6 4 358 341 316 289 264 240 247 246 225 200 202 207 198 190 188 188 188 185 182 183 188 185 188 187 183 184 181